Weather History for KOMA - May, 2013

Change the Weather History Date:

Tuesday, May 21, 2013

  Actual Average Record
Temperature  
Mean Temperature 60 °F 64 °F  
Max Temperature 64 °F 75 °F 98 °F (1925)
Min Temperature 55 °F 53 °F 36 °F (1968)
Degree Days  
Heating Degree Days 5 4  
Month to date heating degree days 164 122  
Since 1 July heating degree days 6121 6124  
Cooling Degree Days 0 3  
Month to date cooling degree days 58 32  
Year to date cooling degree days 65 48  
Growing Degree Days 10 (Base 50)    
Moisture  
Dew Point 50 °F    
Average Humidity 66    
Maximum Humidity 80    
Minimum Humidity 52    
Precipitation  
Precipitation 0.00 in 0.16 in 1.78 in (1945)
Month to date precipitation 3.23 3.17  
Year to date precipitation 11.83 9.69  
Snow  
Snow 0.00 in 0.00 in - ()
Month to date snowfall 3.1 0.1  
Since 1 July snowfall 35.7 26.5  
Snow Depth 0.00 in    
Sea Level Pressure  
Sea Level Pressure 29.67 in    
Wind  
Wind Speed 12 mph (West)    
Max Wind Speed 22 mph    
Max Gust Speed 26 mph    
Visibility 10 miles    
Events      
T = Trace of Precipitation, MM = Missing Value Source: NWS Daily Summary

Daily Weather History Graph

Daily Weather History Graph

Search for Another Location

Airport or City:

Trip Planner

Search our weather history database for the weather conditions in past years. The results will help you decide how hot, cold, wet, or windy it might be!

Date:

Astronomy

May. 21, 2013 Rise Set
Actual Time 5:59 AM CDT 8:41 PM CDT
Civil Twilight 5:27 AM CDT 9:13 PM CDT
Nautical Twilight 4:47 AM CDT 9:54 PM CDT
Astronomical Twilight 4:01 AM CDT 10:40 PM CDT
Moon 4:54 PM CDT (5/21) 3:30 AM CDT (5/21)
Length of Visible Light 15h 46m
Length of Day
14h 42m
Waxing Gibbous, 84% of the Moon is Illuminated
May 21
Waxing Gibbous
May 24
Full
May 31
Last Quarter
Jun 8
New
Jun 16
First Quarter

Hourly Weather History & Observations

Time (CDT) Temp. Dew Point Humidity Pressure Visibility Wind Dir Wind Speed Gust Speed Precip Events Conditions
12:52 AM 63.0 °F 54.0 °F 72% 29.60 in 10.0 mi West 11.5 mph - N/A   Overcast
1:52 AM 62.1 °F 55.0 °F 78% 29.61 in 10.0 mi West 8.1 mph - N/A   Overcast
2:21 AM 60.8 °F 55.4 °F 82% 29.62 in 10.0 mi West 9.2 mph - N/A   Overcast
2:52 AM 61.0 °F 53.1 °F 75% 29.61 in 10.0 mi West 12.7 mph - N/A   Overcast
3:52 AM 59.0 °F 51.1 °F 75% 29.61 in 10.0 mi West 12.7 mph 19.6 mph N/A   Partly Cloudy
4:52 AM 57.9 °F 50.0 °F 75% 29.62 in 10.0 mi West 6.9 mph - N/A   Scattered Clouds
5:52 AM 57.0 °F 48.0 °F 72% 29.65 in 10.0 mi West 6.9 mph - N/A   Partly Cloudy
6:52 AM 57.0 °F 48.0 °F 72% 29.66 in 10.0 mi WSW 5.8 mph - N/A   Mostly Cloudy
7:52 AM 59.0 °F 48.0 °F 67% 29.68 in 10.0 mi WSW 11.5 mph - N/A   Mostly Cloudy
8:52 AM 59.0 °F 46.9 °F 64% 29.67 in 10.0 mi WSW 12.7 mph - N/A   Mostly Cloudy
9:52 AM 61.0 °F 46.9 °F 60% 29.66 in 10.0 mi WSW 13.8 mph 21.9 mph N/A   Mostly Cloudy
10:52 AM 61.0 °F 46.0 °F 58% 29.67 in 10.0 mi WSW 13.8 mph - N/A   Mostly Cloudy
11:52 AM 62.1 °F 46.0 °F 56% 29.67 in 10.0 mi WSW 15.0 mph - N/A   Mostly Cloudy
12:52 PM 62.1 °F 46.0 °F 56% 29.68 in 10.0 mi SW 13.8 mph - N/A   Overcast
1:52 PM 63.0 °F 45.0 °F 52% 29.69 in 10.0 mi WSW 16.1 mph 25.3 mph N/A   Overcast
2:52 PM 63.0 °F 46.0 °F 54% 29.69 in 10.0 mi SW 12.7 mph 20.7 mph N/A   Overcast
3:52 PM 63.0 °F 46.0 °F 54% 29.68 in 10.0 mi WSW 10.4 mph 20.7 mph N/A   Overcast
4:52 PM 63.0 °F 46.9 °F 56% 29.68 in 10.0 mi SW 15.0 mph 21.9 mph N/A   Overcast
5:52 PM 63.0 °F 48.0 °F 58% 29.68 in 10.0 mi WSW 16.1 mph - N/A   Overcast
6:52 PM 62.1 °F 52.0 °F 70% 29.68 in 10.0 mi West 12.7 mph 21.9 mph N/A   Mostly Cloudy
7:52 PM 59.0 °F 52.0 °F 78% 29.68 in 10.0 mi WNW 17.3 mph 23.0 mph N/A   Mostly Cloudy
8:06 PM 59.0 °F 51.8 °F 77% 29.69 in 10.0 mi WNW 13.8 mph - N/A   Mostly Cloudy
8:52 PM 59.0 °F 52.0 °F 78% 29.70 in 10.0 mi West 12.7 mph 21.9 mph N/A   Overcast
9:26 PM 57.2 °F 51.8 °F 82% 29.72 in 10.0 mi WNW 15.0 mph 18.4 mph N/A   Mostly Cloudy
9:52 PM 57.9 °F 51.1 °F 78% 29.72 in 10.0 mi WNW 8.1 mph - N/A   Overcast
10:17 PM 57.2 °F 50.0 °F 77% 29.73 in 10.0 mi WNW 12.7 mph - N/A   Overcast
10:52 PM 57.0 °F 48.9 °F 74% 29.72 in 10.0 mi NW 13.8 mph - N/A   Overcast
11:06 PM 55.4 °F 48.2 °F 77% 29.72 in 10.0 mi NW 13.8 mph 21.9 mph N/A   Overcast
11:52 PM 55.9 °F 48.9 °F 77% 29.72 in 10.0 mi NW 11.5 mph - N/A   Overcast